Regional Weather Roundup
Issued by NWS Cleveland, OH

Home | Current Version | Previous Version | Text Only | Print | Product List | Glossary On
Versions: 1 2 3 4 5 6 7 8 9 10 11 12 13 14 15 16 17 18 19 20 21 22 23 24 25 26 27 28 29 30 31 32 33 34 35 36 37 38 39 40 41 42 43 44 45 46 47 48 49 50
000
ASUS41 KCLE 291012
RWRCLE
OHIO REGIONAL WEATHER ROUNDUP
NATIONAL WEATHER SERVICE WILMINGTON, OH
600 AM EDT FRI APR 29 2016

NOTE: "FAIR" INDICATES FEW OR NO CLOUDS BELOW 12,000 FEET WITH NO
SIGNIFICANT WEATHER AND/OR OBSTRUCTIONS TO VISIBILITY.

OHZ001>008-015>018-024>027-034-035-043-044-291100-
   NORTHWEST OHIO

CITY           SKY/WX    TMP DP  RH WIND       PRES   REMARKS
DEFIANCE       CLOUDY    47  37  68 NE5       30.01S
FINDLAY        CLOUDY    45  39  79 N5        29.99R
TOLEDO EXPRESS CLOUDY    46  35  65 NE7       30.00R
TOLEDO EXEC    CLOUDY    46  35  65 NE7       30.00F
LIMA           CLOUDY    44  43  96 N7        29.98S
$$

OHZ009>014-019>023-028>033-038-089-291100-
   NORTHEAST OHIO

CITY           SKY/WX    TMP DP  RH WIND       PRES   REMARKS
CLE-HOPKINS    LGT RAIN  47  45  93 CALM      30.00S FOG
CLE-LAKEFRONT  LGT RAIN  47  44  90 CALM      29.98R
CUY CO. ARPT   NOT AVBL
LORAIN-ELYRIA  CLOUDY    45  42  89 CALM      29.98S
ASHTABULA      CLOUDY    45  43  93 E3        29.98S
AKRON-CANTON   CLOUDY    47  43  86 CALM      29.97R
WOOSTER        CLOUDY    47  45  93 CALM      29.97S FOG
MANSFIELD      FOG       46  46 100 NW3       29.97R VSB 3/4
YOUNGSTOWN     LGT RAIN  45  43  93 E3        29.97R FOG
$$

OHZ042-051>053-060>062-070>072-077>081-291100-
  SOUTHWEST OHIO

CITY           SKY/WX    TMP DP  RH WIND       PRES   REMARKS
CINC-COVINGTON CLOUDY    55  53  93 W7        30.00R FOG
CINC-LUNKEN    MOCLDY    56  55  97 W5        30.01R FOG
HAMILTON       CLOUDY    56  53  90 CALM      30.01R FOG
DAYTON         FOG       48  48 100 NW3       29.98F VSB 3/4
WRIGHT-PAT AFB NOT AVBL
DAYTON GENERAL FOG       52  50  93 NW3       29.98R VSB 1
WILMINGTON     FOG       51  51 100 W6        29.98R VSB 1
$$

OHZ036-037-039>041-045>050-054>059-063>069-073>076-082>088-291100-
  CENTRAL AND SOUTHEAST OHIO

CITY           SKY/WX    TMP DP  RH WIND       PRES   REMARKS
COLUMBUS       CLOUDY    51  49  92 N5        29.97R FOG
OSU AIRPORT    CLOUDY    50  48  93 NW8       29.97S FOG
BOLTON FIELD   CLOUDY    51  50  97 NW5       29.98R
RICKENBACK AFB CLOUDY    51  50  94 NW3       29.97R FOG
NEWARK         CLOUDY    54  49  83 CALM      29.96S
MARION         FOG       46  45  96 N6        29.98S VSB 1/2
LANCASTER      CLOUDY    53  51  93 NW3       29.97R FOG
ZANESVILLE     CLOUDY    53  49  86 CALM      29.97S FOG
NEW PHILLY     CLOUDY    47  45  93 CALM      29.98R
$$




USA.gov is the U.S. government's official web portal to all federal, state and local government web resources and services.